Theta_e
320 316 317 313 303 302 299 307 314 313 314 318 320 317 316 320 319 311 331 337 343 342 344 347 349 351 350 350 350 350 349 348 348 347 347 345 345 343 341 340 340 341 341 342 342 342 342 341 342
315 317 314 309 300 297 302 310 309 313 316 316 318 317 317 315 325 324 328 339 342 344 346 347 348 349 350 350 350 350 348 347 347 346 345 345 344 342 340 338 339 340 340 340 339 339 337 336 336
318 316 307 304 301 297 302 310 313 314 316 317 315 322 319 317 323 324 333 339 345 344 345 346 346 348 350 350 350 349 348 347 347 347 345 345 343 339 338 338 339 340 339 338 339 339 338 337 337
314 311 307 300 299 306 308 312 313 313 317 318 318 315 321 326 324 327 333 336 337 340 341 341 342 345 346 347 347 347 346 345 344 345 344 342 340 338 338 339 338 337 336 336 336 335 335 335 336
314 308 299 301 304 309 313 314 314 313 314 314 316 316 319 325 326 327 328 330 329 334 337 339 340 343 344 344 343 344 344 343 343 342 341 340 339 338 337 336 335 334 333 333 332 332 333 333 333
305 306 298 299 304 309 312 314 315 315 315 312 314 317 320 326 324 325 325 326 327 331 333 333 340 341 341 341 341 341 341 341 341 340 339 338 337 336 335 334 333 332 331 331 330 329 329 330 330
304 301 298 303 303 306 310 314 310 310 311 311 316 314 320 323 325 324 324 324 327 328 328 331 333 336 338 338 338 339 339 339 338 337 337 337 336 335 334 332 331 330 329 328 327 326 326 326 328
307 303 299 304 301 302 307 310 312 310 309 315 316 311 313 323 326 324 323 323 326 330 331 333 333 335 334 334 336 337 337 337 336 335 335 335 335 335 333 333 329 328 326 326 325 324 324 325 325
309 300 300 301 302 301 306 304 308 311 310 312 316 316 323 325 325 323 321 322 325 329 333 333 332 333 336 333 334 336 338 337 335 335 334 332 334 333 331 330 330 328 327 327 326 326 326 325 325
305 301 301 304 304 303 304 304 305 306 307 307 313 321 327 326 324 321 319 320 324 328 330 335 334 333 331 328 332 336 335 336 335 335 335 335 334 333 331 331 330 330 330 329 329 328 328 327 322
306 301 304 304 305 305 304 304 306 305 303 307 308 313 323 324 323 322 320 321 325 329 330 336 338 335 334 332 330 332 332 332 335 338 333 335 332 335 331 330 330 328 328 327 326 326 324 323 320
302 305 305 304 305 304 303 305 303 305 306 310 312 316 322 320 321 322 322 322 325 327 328 336 336 335 334 333 332 333 331 330 331 331 333 331 329 330 327 325 323 322 321 321 322 320 322 322 318
304 304 305 305 304 305 306 304 305 305 309 311 314 318 320 321 322 324 325 323 325 326 328 333 336 334 336 332 334 333 332 331 330 329 330 329 327 327 326 324 323 322 321 320 319 318 319 319 317
306 305 304 305 306 306 304 305 307 307 309 309 311 315 318 321 322 323 324 324 325 327 330 335 335 333 331 331 330 331 329 329 328 327 325 327 326 325 324 322 322 321 320 320 318 317 318 318 317
307 303 305 306 307 305 306 303 303 309 310 308 308 311 316 318 320 321 323 325 326 326 328 333 334 332 330 330 329 329 324 324 325 325 325 324 324 323 323 322 321 321 322 321 319 318 317 316 317
303 304 299 305 307 307 306 299 305 309 308 307 309 309 312 317 319 322 324 325 327 330 325 331 332 330 329 330 326 326 327 325 324 325 324 324 323 322 321 320 320 322 322 320 318 317 316 315 314
302 297 300 302 307 306 305 301 306 310 309 308 310 311 311 313 318 321 323 324 325 324 328 329 333 328 326 327 325 325 325 323 322 320 321 321 321 321 319 318 319 320 318 317 317 315 315 314 313
296 297 299 298 303 303 301 302 307 309 309 309 309 310 311 311 315 321 322 325 326 327 327 330 331 325 325 327 325 322 320 321 321 321 318 319 319 317 316 314 316 317 313 312 313 313 312 312 312
301 299 298 302 304 301 301 302 305 308 309 310 312 312 312 316 320 320 322 323 326 328 325 324 323 323 322 321 319 317 316 318 318 318 318 317 316 315 313 312 311 311 310 310 310 309 307 308 309
301 299 299 302 303 301 303 301 305 306 307 309 309 310 313 313 314 317 320 322 322 322 322 320 319 318 318 317 317 317 317 316 316 318 316 316 315 313 311 311 310 309 308 307 308 308 306 305 306
301 299 300 299 302 304 301 300 301 305 307 308 310 311 312 311 312 314 316 318 319 319 318 317 316 316 316 317 316 315 315 314 313 312 312 313 313 312 310 309 309 308 307 305 305 306 304 303 304
298 303 301 299 298 294 302 292 299 302 303 306 307 309 309 310 312 313 315 316 316 317 318 317 317 316 316 316 314 312 311 310 312 314 312 311 311 310 308 307 307 307 307 305 305 305 304 303 300
300 304 301 301 298 298 299 295 299 302 300 303 306 308 309 311 312 312 313 314 316 317 317 317 317 315 316 315 314 312 313 311 310 310 309 308 308 307 306 306 305 305 304 305 305 303 303 302 299
306 303 303 302 300 294 297 297 295 299 301 303 306 308 310 311 312 312 314 315 315 318 318 317 315 314 315 315 314 311 309 309 308 307 305 303 303 303 304 305 304 305 304 304 303 302 299 298 298
304 301 295 293 294 292 299 295 298 303 304 305 306 307 310 311 312 312 312 312 314 315 316 316 315 313 314 313 312 312 310 309 306 304 302 301 300 301 301 303 303 302 302 303 302 301 300 299 297
301 299 295 286 288 291 298 291 296 304 306 307 307 308 309 310 311 311 313 312 313 314 315 315 314 312 312 313 312 311 309 306 305 303 301 300 300 300 302 302 302 301 300 299 299 298 297 296 297
300 296 300 295 293 291 292 298 302 304 303 305 305 306 307 309 311 311 313 313 313 313 313 313 313 312 311 310 309 308 306 305 303 302 301 300 301 300 299 300 299 299 298 298 297 295 295 296 295
302 302 295 298 287 284 289 292 293 299 301 303 303 304 306 308 308 310 310 311 312 312 313 313 310 309 308 308 306 305 304 304 302 301 300 299 299 299 298 298 298 298 297 297 296 295 295 294 294
299 298 298 296 294 287 285 289 300 299 302 301 303 305 306 307 307 308 309 310 310 311 311 309 307 306 306 305 305 304 303 302 302 300 299 298 298 298 298 297 296 296 295 295 294 294 294 293 292
301 298 298 293 289 294 291 289 303 302 303 304 303 304 306 307 307 307 308 308 307 307 308 307 306 305 305 304 303 301 302 300 299 298 297 297 296 297 296 295 294 294 293 293 292 292 292 291 291
Wind_Speed
8 11 8 6 5 6 14 9 13 9 10 12 15 14 21 18 11 9 13 11 23 17 15 14 11 11 11 12 13 14 14 14 13 12 11 11 10 10 11 11 11 12 12 12 12 13 13 13 13
8 15 4 4 6 12 3 9 15 16 14 10 12 7 20 18 18 16 14 14 18 16 16 14 13 12 12 12 12 13 13 13 11 11 10 9 9 9 10 9 10 10 11 11 11 11 11 11 12
9 13 6 5 9 15 10 13 14 12 8 11 7 19 15 16 17 14 13 12 25 18 16 14 14 13 13 13 13 12 12 11 11 9 9 10 10 10 11 10 9 10 11 10 10 10 10 11 11
6 4 5 8 13 13 15 16 15 10 4 4 16 14 17 15 17 15 15 15 17 18 15 13 13 13 13 13 12 12 11 10 9 9 10 11 10 10 10 10 11 11 11 11 11 10 11 11 10
7 4 7 11 11 12 13 14 8 10 2 8 6 17 18 20 18 14 14 13 18 16 13 12 12 12 13 13 13 12 11 10 10 10 10 9 9 9 10 10 10 9 10 10 10 10 10 10 10
6 4 8 8 11 12 11 7 1 20 10 8 10 18 16 16 15 12 13 13 14 16 13 11 12 12 12 13 12 11 11 10 9 9 8 7 7 7 8 9 9 9 9 9 9 9 9 10 10
10 8 16 11 11 9 8 4 2 3 7 8 7 16 14 16 13 12 12 13 11 13 13 11 9 11 12 12 11 10 10 9 9 8 6 6 6 7 8 8 7 7 6 6 5 6 6 7 8
10 10 16 8 8 12 7 2 8 5 15 10 9 5 14 17 11 10 11 9 10 9 9 9 11 11 10 8 11 10 10 10 9 8 8 7 6 6 8 8 5 4 1 2 4 5 7 8 9
16 14 7 8 11 10 8 4 4 7 10 6 6 7 19 18 14 10 10 8 8 8 6 7 7 7 10 11 9 10 11 10 10 8 10 8 6 9 11 7 7 6 6 7 6 8 10 9 10
9 9 13 10 9 10 9 7 8 6 10 7 9 13 19 16 12 11 9 8 9 9 7 7 7 6 1 5 10 10 9 8 8 7 3 4 4 1 3 6 7 8 10 10 8 10 12 8 5
9 7 10 9 9 5 9 9 6 5 7 13 11 9 15 14 11 11 11 11 10 10 6 10 7 4 3 4 2 2 2 3 3 7 4 4 2 1 1 2 4 5 10 4 7 6 6 2 2
2 8 7 12 5 3 8 6 4 6 8 10 14 13 15 13 11 11 11 13 11 12 10 14 9 5 3 3 2 3 4 2 3 3 5 2 2 4 3 3 3 3 3 3 2 2 3 4 2
6 4 7 7 5 2 7 3 4 4 9 5 10 12 13 12 12 10 10 9 9 10 12 11 11 7 6 1 4 4 2 3 1 4 6 4 3 3 3 2 3 3 3 3 3 4 4 4 5
8 6 8 7 7 4 3 5 3 8 10 9 6 11 13 13 13 12 8 6 8 10 12 13 14 9 7 3 4 2 2 2 2 5 4 3 2 2 2 3 3 4 3 3 3 4 4 5 5
5 8 6 6 8 5 4 8 11 9 6 9 10 7 10 12 11 11 8 7 8 7 10 11 12 11 8 5 5 4 4 1 1 4 6 4 1 2 3 3 4 4 3 5 5 5 4 5 5
9 9 10 11 8 6 7 12 16 12 11 8 10 11 10 12 11 12 9 8 5 2 15 10 14 11 8 5 4 2 4 3 3 2 3 4 3 1 3 4 4 4 4 4 4 4 5 5 5
9 10 9 8 6 2 9 13 15 11 5 7 8 10 8 6 11 11 11 7 8 7 9 10 9 9 9 7 4 4 4 3 2 3 5 7 6 7 5 4 5 5 4 5 5 5 4 4 5
11 10 6 3 9 5 9 10 6 7 5 9 11 11 11 11 8 13 9 5 7 7 8 9 7 3 5 6 2 2 3 3 1 4 5 7 3 7 6 5 6 6 5 5 5 6 6 5 7
10 8 7 14 7 3 10 8 9 7 3 2 2 4 6 15 18 17 12 8 9 7 16 12 10 6 5 3 3 5 4 4 5 5 6 4 6 7 5 4 5 5 5 6 7 6 7 6 5
5 5 4 6 6 5 7 11 11 6 6 8 8 8 14 15 15 14 13 13 14 11 8 9 10 9 7 5 4 3 2 2 2 4 6 6 6 7 7 6 5 4 4 6 6 6 6 5 5
4 6 9 8 6 8 10 7 13 10 8 10 14 13 14 13 12 12 12 10 9 9 9 10 9 9 8 9 6 4 4 4 4 5 4 4 6 5 6 7 6 5 4 5 6 6 7 6 6
4 6 5 8 7 8 13 4 13 14 11 12 13 11 11 10 11 11 12 10 9 8 8 8 6 6 6 7 4 4 3 3 3 4 6 7 5 6 7 7 7 6 4 6 5 6 5 5 6
6 4 6 8 9 10 10 7 14 16 13 13 11 11 10 10 10 10 9 10 9 6 5 5 3 5 4 3 2 2 4 4 4 4 4 5 7 7 8 7 7 6 6 6 6 5 6 4 3
6 9 9 8 9 3 12 2 5 3 13 12 10 9 9 7 8 7 7 9 8 5 4 2 4 3 4 4 4 3 3 4 5 6 5 6 6 5 6 8 6 6 6 6 7 5 7 5 5
8 8 4 2 3 2 6 2 10 11 10 13 10 11 9 7 7 6 6 6 5 3 1 3 7 10 8 1 3 5 7 7 7 6 6 7 5 4 7 7 6 5 5 6 6 5 4 4 3
5 6 3 4 5 3 4 3 10 14 11 11 10 8 8 8 5 4 2 1 2 4 5 5 4 7 9 6 6 7 7 4 4 6 4 4 4 4 6 7 7 9 9 7 8 4 4 5 5
6 7 4 1 2 2 6 16 13 12 9 9 7 1 3 1 2 2 3 2 4 5 5 5 4 4 8 9 6 6 6 5 5 5 3 3 4 7 9 8 7 5 6 5 5 4 7 7 7
5 2 2 3 2 3 8 6 7 5 4 4 3 6 7 8 9 6 7 8 7 8 7 8 9 8 6 6 5 5 5 5 3 3 5 7 6 8 9 7 7 8 6 7 7 6 8 9 7
1 2 2 4 1 2 3 2 6 6 7 7 6 6 8 7 8 10 11 12 11 9 8 5 6 8 8 5 5 5 4 4 3 4 5 5 6 7 8 8 9 9 7 5 4 6 8 7 8
2 4 4 0 2 1 1 6 4 4 6 10 7 7 7 11 12 11 10 11 9 9 9 9 9 6 5 5 5 6 5 6 6 6 6 5 5 6 7 7 8 8 7 7 6 7 8 9 8
Wind_Direction
287 268 245 258 253 228 257 66 79 85 69 56 44 54 67 49 28 83 87 99 99 106 111 90 97 96 88 84 83 84 85 85 86 88 87 87 78 66 59 50 43 37 30 29 23 15 1 354 351
288 287 249 283 251 253 137 91 80 70 81 86 60 54 76 70 85 107 110 123 108 99 93 89 88 98 96 90 85 85 87 87 89 89 88 83 75 67 65 61 56 48 44 40 35 24 10 359 349
269 278 257 224 231 255 116 108 99 99 121 100 81 51 45 87 75 95 105 102 111 98 97 87 82 84 81 76 75 85 84 84 79 79 79 72 64 59 58 58 57 58 54 48 41 32 23 13 9
243 220 261 248 263 51 116 97 107 110 78 4 107 98 69 71 95 105 120 112 96 94 97 93 90 86 87 88 88 86 80 73 76 73 68 62 58 60 67 66 60 58 52 45 37 26 20 15 15
246 267 252 235 72 79 83 98 136 72 174 122 42 96 89 90 108 116 111 104 99 106 111 102 95 92 86 83 83 84 83 81 77 76 70 72 74 78 76 72 67 57 51 43 32 19 8 3 1
250 231 261 241 101 76 77 79 94 159 139 86 111 99 92 115 114 112 110 107 102 112 124 118 113 104 101 97 92 93 89 88 88 86 91 95 94 89 81 71 62 50 40 29 20 7 357 346 343
245 272 287 111 116 110 88 44 282 66 77 85 104 104 118 127 118 126 120 115 122 125 124 133 129 116 107 106 106 106 108 113 109 112 126 140 138 133 110 89 71 52 39 21 5 345 329 315 315
235 261 265 130 167 111 88 260 59 58 66 67 352 185 148 119 134 117 120 131 131 124 118 125 142 155 139 139 133 138 143 146 146 156 178 167 182 176 133 132 125 109 64 304 308 296 284 289 289
260 266 130 144 169 120 145 144 19 17 96 82 47 63 123 131 144 149 142 144 131 125 124 124 99 82 135 138 152 167 170 167 164 183 213 173 211 174 163 164 167 175 219 227 233 261 267 270 278
265 318 106 63 48 137 168 173 120 179 124 127 103 110 124 143 159 154 161 158 144 128 154 94 121 94 141 121 157 186 171 183 184 175 193 168 83 71 278 167 182 205 227 236 234 245 260 273 268
265 69 83 83 23 83 140 106 115 204 169 149 149 152 139 154 170 170 177 166 164 161 156 129 99 90 353 91 344 95 118 93 152 90 77 55 337 87 41 115 189 214 214 252 208 228 231 4 324
139 72 99 83 38 351 134 119 158 282 81 130 155 157 148 170 175 184 191 177 180 166 147 136 136 134 57 4 74 55 60 74 57 76 71 54 23 42 10 34 347 322 325 309 277 294 311 283 264
100 106 81 103 152 85 36 137 294 218 111 108 126 141 149 171 177 188 214 181 171 166 153 147 134 146 137 144 86 68 326 82 357 80 74 52 0 58 8 337 318 323 305 314 355 334 323 338 314
119 134 131 157 122 136 219 170 202 206 150 166 159 167 168 178 191 179 196 177 183 164 156 148 152 144 140 120 83 117 90 155 136 95 86 67 8 59 356 337 325 313 319 342 312 268 256 252 240
137 164 166 178 147 148 226 271 201 142 189 178 172 204 196 179 184 160 181 185 170 184 174 160 129 134 127 136 148 207 125 270 124 126 141 142 90 6 352 306 289 291 311 321 292 288 283 281 267
200 238 202 150 164 159 214 273 190 144 172 206 199 198 215 190 178 154 161 193 186 229 75 338 160 126 124 156 151 220 116 37 267 159 151 130 65 18 358 330 316 315 320 301 296 287 281 286 286
212 231 191 146 185 110 221 293 125 167 199 246 255 185 190 229 166 148 140 169 194 203 156 175 121 123 138 128 196 133 122 237 37 359 62 43 357 35 8 330 315 320 303 297 298 298 286 299 303
334 222 146 174 136 205 274 259 121 57 293 260 243 258 189 178 192 154 138 109 44 36 36 63 82 39 128 120 95 305 167 221 157 61 60 56 26 21 357 330 320 328 318 311 317 327 316 301 291
335 3 336 93 90 327 263 284 65 24 237 127 239 17 58 59 64 59 58 46 61 31 47 65 61 28 7 76 38 29 18 2 32 25 60 29 44 13 340 304 338 329 326 324 322 314 301 298 298
323 346 304 59 63 281 245 238 94 71 24 63 82 69 76 72 69 66 57 46 52 56 60 81 63 35 23 54 72 52 350 353 327 36 13 28 37 354 325 320 306 336 336 319 305 312 318 309 315
147 347 26 337 320 264 280 224 129 115 94 74 67 84 82 85 88 88 78 64 55 53 57 70 74 63 33 350 54 18 4 13 26 12 328 6 7 336 326 333 329 329 334 313 303 300 309 326 326
346 41 317 283 274 263 184 306 143 147 123 102 92 81 83 84 85 93 93 88 78 62 54 62 66 89 87 25 59 2 346 324 339 0 350 333 325 11 347 342 342 334 338 312 299 331 321 318 314
48 327 289 283 270 276 256 238 143 150 152 123 100 95 77 58 69 81 89 92 89 88 65 45 103 104 100 55 48 297 345 359 338 293 306 345 20 358 348 349 340 344 325 306 302 320 348 13 13
297 253 232 255 248 259 261 309 51 96 96 109 105 88 78 86 104 95 113 124 119 107 85 17 317 336 164 181 50 17 299 318 359 2 13 8 357 348 338 339 332 315 311 339 24 29 38 38 27
334 327 260 280 178 250 17 283 89 126 95 125 125 105 86 63 37 44 59 56 104 80 2 262 4 344 341 44 59 19 27 24 18 18 12 360 331 341 327 334 321 327 348 6 16 27 20 26 38
1 319 42 328 358 1 235 287 110 108 104 101 99 107 148 135 139 123 78 85 13 12 357 351 10 327 338 356 21 49 44 33 20 29 0 321 342 321 316 339 337 24 40 29 16 9 349 355 312
355 50 355 194 39 303 262 101 106 125 131 126 110 119 104 164 200 56 24 51 25 11 19 24 341 321 23 30 30 34 40 33 27 9 338 296 331 348 358 348 349 18 15 5 352 335 316 296 286
46 2 318 29 322 314 338 353 93 174 179 89 45 45 20 12 12 42 16 16 26 7 6 22 37 42 20 24 32 19 0 31 350 299 305 27 359 335 323 332 340 337 335 318 333 338 318 306 299
112 34 29 317 42 289 312 349 36 36 65 27 3 334 37 28 4 9 14 22 26 13 7 48 35 10 338 2 359 342 337 307 298 346 40 15 337 324 323 320 318 311 313 313 297 273 278 280 292
359 357 335 95 321 216 192 280 61 75 44 17 349 28 38 36 24 11 5 7 5 8 358 358 352 327 357 358 340 324 319 8 3 11 3 332 315 310 314 316 314 308 301 300 285 277 282 273 275